ORBCOMM FM27

Last updated on Tue Sep 22 2026 00:03:23 GMT+0000 (Coordinated Universal Time)

1 25481U 98053G 26264.53533997 .00000511 00000+0 20875-3 0 9990 2 25481 45.0046 237.6740 0002685 312.9518 47.1105 14.39284834464110
UTC large
Height (km)
Speed (km/s)
/
Latitude / Longitude
Inclination (degrees)
Orbital Period (minutes)
Azimuth
Elevation
Range (km)
Doppler Factor

Next 0 passes for location: London (51.5072 / 0.1276)

No passes found over London.
ORBCOMM FM27